Location: Unspecified
(47.4992°N, 121.7766°W)
Time: 18:52:51
(UTC-08:00)

Cosmos 2058 - Pass Details

Date: 04 February 2021
Orbit: 561 x 584 km, 82.5° (Epoch: 05 March)

Event Time Altitude Azimuth Distance (km) Brightness Sun altitude
Rises 05:55:36 0° 349° (NNW) 2,769 6.2 -16.0°
Reaches altitude 10° 05:57:48 10° 347° (NNW) 1,866 5.3 -15.6°
Maximum altitude 06:01:53 75° 263° (W) 588 2.7 -15.0°
Drops below altitude 10° 06:05:57 10° 178° (S) 1,847 5.6 -14.3°
Sets 06:08:06 0° 177° (S) 2,738 6.5 -13.9°
